SCP
1 0 0 0 0 0 0 0 0 0 0 0 0 0 0 0 0 0 0 0 0 0 0 0 1 1 1 1 1 1 1 2 2 3 3 3 2 2 1 1 1 0 0 0
0 0 0 0 0 0 0 0 0 0 0 0 0 0 0 0 0 0 0 0 0 0 0 0 0 1 1 1 1 1 1 1 2 3 3 3 2 2 2 1 1 1 0 0
0 0 0 0 0 0 0 0 0 0 0 0 0 0 0 0 0 0 0 0 0 0 0 0 0 1 1 1 1 1 1 1 2 2 3 3 3 2 2 1 1 1 1 0
0 0 0 0 0 0 0 0 0 0 0 0 0 0 0 0 0 0 0 0 0 0 0 0 0 1 1 1 1 1 1 1 1 2 2 3 2 2 2 1 1 1 1 1
0 0 0 0 0 0 0 0 0 0 0 0 0 0 0 0 0 0 0 0 0 0 0 0 0 0 1 1 1 1 1 1 1 1 2 2 2 2 2 1 1 1 1 1
0 0 0 0 0 0 0 0 0 0 0 0 0 0 0 0 0 0 0 0 0 0 0 0 0 0 1 1 2 2 1 1 1 1 1 1 2 2 1 1 1 1 1 1
0 0 0 0 0 0 0 0 0 0 0 0 0 0 0 0 0 0 0 0 0 0 0 0 0 0 1 1 2 2 2 1 1 1 1 1 1 1 1 1 1 1 1 1
0 0 0 0 0 0 0 0 0 0 0 0 0 0 0 0 0 0 0 0 0 0 0 0 0 0 1 1 2 2 2 1 1 1 1 1 1 1 1 1 1 1 1 0
0 0 0 0 0 0 0 0 0 0 0 0 0 0 0 0 0 0 0 0 0 0 0 0 0 0 0 1 2 2 2 2 1 1 1 1 1 1 1 1 1 1 0 0
0 0 0 0 0 0 0 1 1 0 0 0 0 0 0 0 0 0 0 0 0 0 0 0 0 0 0 0 1 1 2 1 1 1 1 1 1 1 1 1 1 1 0 0
0 0 0 0 0 0 0 1 1 1 0 0 0 0 0 0 0 0 0 0 0 0 0 0 0 0 0 0 0 1 1 1 1 1 1 1 1 1 1 1 1 1 1 1
0 0 0 0 0 0 0 0 0 0 0 0 0 0 0 0 0 0 0 0 0 0 0 0 0 0 0 0 0 0 1 1 1 1 1 1 1 1 1 1 1 1 1 1
0 0 0 0 0 0 0 0 0 0 0 0 0 0 0 0 0 0 0 0 0 0 0 0 0 0 0 0 0 0 0 1 1 1 1 1 1 0 0 0 0 1 1 1
0 0 0 0 0 0 0 0 0 0 0 0 0 0 0 0 0 0 0 0 0 0 0 0 0 0 0 0 0 0 0 0 1 1 1 1 1 0 0 0 0 0 1 1
0 0 0 0 0 0 0 0 0 0 0 0 0 0 0 0 0 0 0 0 0 0 0 0 0 0 0 0 0 0 0 0 1 1 1 1 1 0 0 0 0 0 1 1
0 0 0 0 0 0 0 0 0 0 0 0 0 0 0 0 0 0 0 0 0 0 0 0 0 0 0 0 0 0 0 0 0 1 1 1 1 1 1 1 1 1 1 1
0 0 0 0 0 0 0 0 0 0 0 0 0 0 0 0 0 0 0 0 0 0 0 0 0 0 0 0 0 0 0 0 0 0 0 1 1 1 1 1 1 1 1 1
0 0 0 0 0 0 0 0 0 0 0 0 0 0 0 0 0 0 0 0 0 0 0 0 0 0 0 0 0 0 0 0 0 0 0 0 0 1 1 1 1 1 1 1
0 0 0 0 0 0 0 0 0 0 0 0 0 0 0 0 0 0 0 0 0 0 0 0 0 0 0 0 0 0 0 0 0 0 0 0 0 0 0 1 1 1 1 1
0 0 0 0 0 0 0 0 0 0 0 0 0 0 0 0 0 0 0 0 0 0 0 0 0 0 0 0 0 0 0 0 0 0 0 0 0 0 0 0 0 0 0 0
0 0 0 0 0 0 0 0 0 0 0 0 0 0 0 0 0 0 0 0 0 0 0 0 0 0 0 0 0 0 0 0 0 0 0 0 0 0 0 0 0 0 0 0
0 0 0 0 0 0 0 0 0 0 0 0 0 0 0 0 0 0 0 0 0 0 0 0 0 0 0 0 0 0 0 0 0 0 0 0 0 0 0 0 0 0 0 0
0 0 0 0 0 0 0 0 0 0 0 0 0 0 0 0 0 0 0 0 0 0 0 0 0 0 0 0 0 0 0 0 0 0 0 0 0 0 0 0 0 0 0 0
0 0 0 0 0 0 0 0 0 0 0 0 0 0 0 0 0 0 0 0 0 0 0 0 0 0 0 0 0 0 0 0 0 0 0 0 0 0 0 0 0 0 0 0
0 0 0 0 0 0 0 0 0 0 0 0 0 0 0 0 0 0 0 0 0 0 0 0 0 0 0 0 0 0 0 0 0 0 0 0 0 0 0 0 0 0 0 0
0 0 0 0 0 0 0 0 0 0 0 0 0 0 0 0 0 0 0 0 0 0 0 0 0 0 0 0 0 0 0 0 0 0 0 0 0 0 0 0 0 0 0 0
Wind_Speed
2 3 7 9 9 6 4 5 8 8 5 6 11 13 11 9 8 9 9 8 8 9 9 8 8 9 8 9 11 12 12 13 10 8 9 9 10 9 8 8 9 10 9 10
2 10 9 6 6 7 7 9 9 8 5 5 9 14 11 10 11 11 12 11 10 9 8 7 7 7 8 10 11 11 13 12 12 11 10 7 7 6 6 5 7 9 10 10
10 6 5 5 6 8 10 10 9 8 7 6 7 12 10 9 10 10 10 11 10 11 10 9 7 8 8 8 10 10 12 12 12 11 6 4 4 3 5 7 8 9 10 9
7 6 4 6 8 8 12 7 7 8 5 5 4 9 8 7 9 10 11 10 10 10 10 8 7 7 8 9 8 9 10 11 10 10 9 10 10 10 10 8 7 7 9 9
6 4 5 8 8 7 6 3 5 6 6 8 6 9 10 5 9 10 10 10 10 10 9 9 8 8 8 8 7 8 8 8 9 9 10 11 11 9 6 5 6 7 7 9
7 4 6 7 5 6 3 2 4 3 3 10 11 9 10 6 9 7 8 9 9 8 8 7 6 5 5 4 4 5 6 6 6 8 9 11 12 10 7 7 8 7 6 7
5 5 4 3 3 3 3 2 2 3 5 10 6 9 11 6 7 7 7 7 7 6 6 5 4 4 3 3 3 4 5 5 5 6 7 9 10 11 11 10 9 8 7 7
3 5 5 3 5 5 6 7 6 6 6 5 4 10 8 4 3 3 3 3 2 3 2 1 1 1 2 2 3 3 4 5 5 6 7 7 8 7 7 8 7 8 7 8
4 6 3 4 3 4 4 6 6 4 4 5 7 7 7 3 3 2 3 3 3 3 2 2 1 1 1 0 1 2 3 3 4 5 5 5 6 6 6 6 7 5 6 5
2 5 6 4 2 4 6 4 2 5 5 7 7 6 5 3 4 3 3 3 4 4 4 3 2 2 1 1 1 0 1 3 3 3 3 3 4 5 6 5 6 6 6 6
2 4 5 2 6 7 3 4 4 4 4 5 6 7 4 5 4 4 4 4 3 3 3 3 3 2 2 2 2 2 1 1 1 1 2 2 2 3 3 4 5 5 5 6
2 2 5 8 7 7 7 6 6 5 6 5 7 10 3 4 3 3 5 5 4 3 3 3 3 3 3 3 3 2 2 1 1 1 1 2 2 2 3 4 4 4 4 4
2 2 4 6 4 2 4 5 6 5 5 6 8 10 4 4 5 5 5 5 4 4 3 3 3 3 4 4 4 3 3 2 2 1 2 1 1 2 2 3 3 3 3 4
3 3 6 9 7 5 8 9 8 7 7 9 12 14 11 8 8 7 6 6 5 4 3 2 2 3 3 3 3 3 4 3 3 2 1 2 2 2 3 3 2 2 3 3
1 5 7 10 9 9 12 14 12 12 12 12 14 16 15 10 9 7 6 5 4 3 2 2 3 3 4 4 4 4 4 3 3 3 2 2 2 2 2 1 2 2 2 3
3 5 5 9 10 10 13 14 15 15 14 15 15 17 12 8 5 5 5 4 4 4 3 3 3 4 4 4 4 4 4 3 3 3 3 3 2 2 2 2 1 2 2 2
4 4 4 7 7 5 11 13 13 11 10 11 15 15 8 6 6 6 5 5 4 3 3 3 3 4 4 4 3 4 4 3 2 3 3 2 2 2 2 2 2 2 2 2
6 5 4 3 1 10 11 6 9 12 13 10 10 9 7 7 7 7 5 4 4 4 5 5 4 5 5 4 4 3 3 3 3 3 3 3 2 3 3 3 2 2 2 2
9 7 4 3 6 11 11 6 5 8 11 8 9 9 8 6 5 5 4 3 5 5 6 5 5 5 5 4 4 3 3 3 3 3 4 3 3 3 3 3 3 2 2 2
6 7 6 5 6 10 10 6 4 3 10 6 7 10 9 5 6 8 5 5 6 5 5 5 5 4 4 4 3 3 4 4 4 4 5 4 3 4 4 4 3 2 2 3
3 5 8 9 9 11 9 4 1 4 9 6 6 8 7 8 9 8 6 6 6 5 5 5 4 4 4 4 3 4 4 5 5 4 4 4 3 4 4 3 2 2 2 2
6 6 7 7 9 11 6 2 6 8 6 5 6 6 8 9 9 8 7 6 6 5 5 4 4 5 5 4 3 5 6 5 3 3 3 3 3 3 2 2 2 1 1 2
9 9 7 10 10 8 5 7 6 4 6 7 6 7 7 8 9 8 8 7 6 6 5 4 4 6 5 4 3 5 5 4 3 3 3 3 3 3 2 2 2 1 2 2
6 5 7 8 10 10 8 7 6 6 8 8 7 8 7 9 9 9 8 7 6 5 5 4 5 6 6 4 4 4 4 3 2 3 4 3 3 3 2 2 2 2 3 3
8 5 6 10 11 9 9 9 9 9 8 8 8 8 8 9 9 8 7 7 6 6 5 4 5 6 6 4 4 3 3 2 3 3 3 3 2 2 2 2 2 3 3 4
7 8 9 12 9 8 10 8 8 8 9 9 9 9 8 7 8 7 7 6 6 6 5 5 5 5 5 4 4 4 3 2 3 3 3 2 2 2 1 1 2 2 3 3
Wind_Direction
182 185 215 214 213 233 235 244 257 260 264 252 254 262 264 261 259 256 255 252 248 247 242 231 225 222 213 206 202 201 200 200 192 192 195 199 206 205 204 207 206 205 206 204
203 231 229 222 225 239 251 259 266 284 276 263 268 268 265 253 248 242 244 249 249 253 258 244 226 218 210 207 205 204 203 200 197 200 201 201 200 203 205 205 208 208 208 207
219 238 217 222 239 237 244 242 249 264 298 289 287 282 259 253 247 249 244 240 242 239 244 245 228 219 212 210 209 207 206 203 201 200 191 181 175 181 200 209 213 213 210 208
240 244 227 224 233 225 250 237 245 255 263 268 238 278 267 248 252 248 247 243 243 245 243 242 233 220 215 215 212 210 205 203 202 196 191 190 198 206 211 211 211 206 204 207
243 222 221 230 230 217 241 244 241 244 242 262 243 258 271 242 246 246 242 239 240 240 240 239 234 225 218 213 208 209 207 204 199 196 198 199 209 216 214 204 204 207 207 210
251 247 221 227 234 215 231 299 286 252 225 249 230 228 266 221 230 242 241 238 240 240 237 237 235 227 222 212 205 202 200 208 203 197 200 203 209 211 206 204 208 211 213 214
271 265 252 217 229 236 190 181 254 246 226 243 211 220 251 231 232 231 239 245 246 249 247 244 236 219 213 197 200 197 191 200 201 197 202 207 212 213 214 213 212 211 214 216
234 264 237 216 202 214 211 191 205 221 228 260 217 232 253 251 249 249 252 260 270 280 271 252 246 230 225 193 186 190 195 205 202 202 210 209 209 213 219 219 218 216 217 218
222 255 265 252 233 191 208 215 219 238 258 258 243 256 285 305 323 322 326 340 327 313 306 290 287 325 347 280 182 185 204 216 216 210 213 215 213 212 216 216 217 220 223 217
215 269 274 259 256 226 208 197 197 210 224 244 258 248 246 281 288 293 305 310 311 318 329 334 345 355 3 1 320 233 183 213 223 216 215 218 223 221 219 215 216 218 219 218
269 249 286 263 211 226 229 219 219 225 219 222 257 258 224 225 238 253 270 281 293 308 326 342 346 350 11 19 21 9 12 356 308 252 231 224 231 227 218 219 224 224 222 218
253 236 260 258 257 244 230 222 213 228 249 237 250 262 257 257 266 268 283 291 299 305 324 342 344 347 358 2 8 6 346 336 328 316 270 236 234 231 222 224 229 228 227 223
264 230 284 306 305 291 238 232 235 250 249 244 246 261 282 304 303 295 289 292 296 304 313 334 346 351 354 355 356 352 343 329 329 332 329 295 269 254 247 243 238 232 232 235
279 224 219 237 256 276 278 276 266 248 241 249 248 264 283 288 290 296 292 286 287 291 304 334 337 333 341 345 343 343 339 339 339 337 334 319 295 274 263 256 249 238 230 233
225 237 241 256 265 271 269 271 266 251 242 245 257 260 268 272 274 278 282 290 296 296 303 303 313 321 330 335 335 332 329 336 338 332 326 301 300 293 286 279 269 253 239 236
213 236 250 264 265 270 272 269 264 260 258 253 261 265 264 265 268 275 274 275 274 277 285 298 310 317 315 313 312 317 320 324 327 316 304 309 318 307 293 284 284 278 257 245
215 215 240 261 274 293 263 246 246 249 246 245 253 261 273 275 268 265 271 272 264 266 278 283 289 294 296 294 292 296 301 312 320 305 299 312 313 302 302 297 287 276 274 259
212 210 224 253 287 242 246 238 234 250 257 250 255 267 275 274 271 262 252 251 264 269 273 272 276 282 284 286 289 291 302 298 296 298 300 302 295 286 290 286 270 269 272 262
209 202 211 210 238 267 282 260 225 241 261 245 251 268 279 287 293 271 264 274 264 263 267 268 269 273 280 284 291 295 296 293 285 282 278 276 270 268 264 262 265 265 256 258
210 202 205 207 222 243 252 254 247 246 260 250 250 261 269 275 272 266 269 281 279 277 276 281 285 284 281 285 289 277 277 278 274 277 280 277 265 259 256 255 262 271 255 255
201 209 216 223 236 253 255 268 57 217 257 271 252 257 262 250 252 268 274 269 267 271 275 279 281 281 280 286 283 271 274 269 273 286 288 283 270 259 258 262 258 248 249 252
208 209 215 211 230 251 250 185 211 243 271 279 272 264 262 265 273 277 275 274 275 281 283 281 281 283 287 279 266 265 268 278 293 293 288 286 283 275 263 257 261 245 222 232
217 210 209 211 230 247 231 221 238 255 272 279 276 275 270 274 274 276 276 271 272 277 283 287 283 286 288 280 260 262 279 295 303 301 291 289 290 285 268 252 249 243 223 223
244 230 233 252 257 261 263 258 267 270 267 272 274 276 270 268 272 274 277 276 277 278 281 287 285 281 283 283 275 270 284 292 291 288 292 295 291 295 288 262 243 233 225 224
233 220 236 252 263 277 266 255 264 271 274 280 279 270 263 263 269 271 274 273 271 275 280 278 273 273 279 292 289 290 286 283 277 271 279 284 279 277 292 288 261 252 252 229
217 217 230 248 249 248 264 268 270 272 275 273 274 277 274 264 268 275 275 276 277 278 283 283 279 276 283 291 292 297 292 274 261 266 264 264 267 269 261 273 311 282 255 245